GSAT0205 (PRN E24)

Last updated on Jan. 16, 2021, 6:29 a.m. UTC

1 40889U 15045A   21015.10004640 -.00000012  00000-0  00000-0 0  9992
2 40889  55.9883 276.2712 0005766  10.5325 349.5549  1.70474630 33272
UTC
Height (km)
Latitude
Longitude
Inclination
Orbital Period
UTC large
Height (km)
Speed (km/s)
/
Latitude / Longitude
Inclination (degrees)
Orbital Period (minutes)
Azimuth
Elevation
Range (km)
Doppler Factor
iOS Compass Heading
iOS Angle

Next 30 passes for location: Hong Kong

Rise time Rise Azimuth (degrees) Set time Set Azimuth (degrees) Duration Max altitude (degrees)

No matching passes for this satellites